Location: Recife
(8.0585°S, 34.8848°W)
Time: 20:41:04
(UTC-03:00)

Explorer 11/Cluster Stage 4 - Pass Details

Date: 16 April 2026
Orbit: 463 x 1174 km, 28.8° (Epoch: 19 May)

Event Time Altitude Azimuth Distance (km) Brightness Sun altitude
Exits shadow 04:44:20 - 225° (SW) 1,999 8.2 -10.0°
Reaches altitude 10° 04:44:43 10° 224° (SW) 1,861 8.0 -9.9°
Maximum altitude 04:48:50 45° 150° (SSE) 875 7.0 -8.9°
Drops below altitude 10° 04:53:49 10° 78° (ENE) 2,252 10.7 -7.7°
Sets 04:56:40 0° 72° (ENE) 3,311 12.1 -7.0°
